Mount Airy, NC

6:17 AM EST on December 16, 2019 (GMT -0500)
Mount Airy-Surry County

Weather History for KMWK - June, 2019

Change the Weather History Date:

Monday, June 10, 2019

  Actual Average (KINT) Record (KINT)
Temperature  
Mean Temperature 75 °F -  
Max Temperature 82 °F 80 °F 96 °F (1993)
Min Temperature 68 °F 63 °F 44 °F (1977)
Cooling Degree Days 10    
Growing Degree Days 25 (Base 50)    
Moisture  
Dew Point 69 °F    
Average Humidity 87    
Maximum Humidity 91    
Minimum Humidity 73    
Precipitation  
Precipitation 0.00 in - - ()
Sea Level Pressure  
Sea Level Pressure 30.00 in    
Wind  
Wind Speed 1 mph ()    
Max Wind Speed 7 mph    
Max Gust Speed -    
Visibility 9.5 miles    
Events Rain    
Averages and records for this station are not official NWS values.
T = Trace of Precipitation, MM = Missing Value Source: Averaged Metar Reports

Daily Weather History Graph

Daily Weather History Graph

Search for Another Location

Airport or City:

Astronomy

Jun. 10, 2019 Rise Set
Actual Time 6:03 AM EDT 8:39 PM EDT
Civil Twilight 5:33 AM EDT 9:10 PM EDT
Nautical Twilight 4:55 AM EDT 9:47 PM EDT
Astronomical Twilight 4:13 AM EDT 10:29 PM EDT
Moon 1:42 PM EDT (6/10) 2:00 AM EDT (6/10)
Length of Visible Light 15h 36m
Length of Day
14h 36m
First Quarter, 55% of the Moon is Illuminated
Jun 10
First Quarter
Jun 17
Full
Jun 25
Last Quarter
Jul 2
New
Jul 9
First Quarter

Hourly Weather History & Observations

Time (EDT) Temp. Heat Index Dew Point Humidity Pressure Visibility Wind Dir Wind Speed Gust Speed Precip Events Conditions
12:00 AM 69.3 °F - 66.2 °F 90% 30.06 in 10.0 mi Calm Calm - N/A   Overcast
12:20 AM 69.3 °F - 66.2 °F 90% 30.05 in 10.0 mi Calm Calm - N/A   Overcast
12:40 AM 69.3 °F - 66.2 °F 90% 30.05 in 10.0 mi Calm Calm - N/A   Overcast
1:00 AM 69.3 °F - 66.2 °F 90% 30.05 in 10.0 mi Calm Calm - N/A   Overcast
1:20 AM 69.1 °F - 66.2 °F 91% 30.04 in 10.0 mi Calm Calm - N/A   Overcast
1:40 AM 69.1 °F - 66.2 °F 91% 30.04 in 10.0 mi Calm Calm - N/A   Overcast
2:00 AM 68.9 °F - 66.2 °F 91% 30.04 in 10.0 mi Calm Calm - N/A   Overcast
2:20 AM 68.9 °F - 66.2 °F 91% 30.04 in 10.0 mi Calm Calm - N/A   Overcast
2:40 AM 69.3 °F - 66.2 °F 90% 30.03 in 10.0 mi Calm Calm - N/A   Overcast
3:00 AM 69.4 °F - 66.4 °F 90% 30.02 in 10.0 mi Calm Calm - N/A   Overcast
3:20 AM 68.9 °F - 65.8 °F 90% 30.02 in 10.0 mi Calm Calm - N/A   Overcast
3:40 AM 68.9 °F - 65.8 °F 90% 30.02 in 10.0 mi Calm Calm - N/A   Overcast
4:00 AM 68.9 °F - 65.8 °F 90% 30.01 in 10.0 mi Calm Calm - N/A   Overcast
4:20 AM 68.9 °F - 65.8 °F 90% 30.01 in 10.0 mi Calm Calm - N/A   Overcast
4:40 AM 68.9 °F - 65.8 °F 90% 30.01 in 10.0 mi Calm Calm - N/A   Overcast
5:00 AM 68.9 °F - 65.8 °F 90% 30.01 in 10.0 mi Calm Calm - N/A   Overcast
5:20 AM 68.9 °F - 65.8 °F 90% 30.02 in 10.0 mi Calm Calm - N/A   Overcast
5:40 AM 68.9 °F - 65.7 °F 89% 30.01 in 10.0 mi Calm Calm - N/A   Overcast
6:00 AM 68.9 °F - 65.7 °F 89% 30.02 in 10.0 mi Calm Calm - N/A   Overcast
6:20 AM 68.9 °F - 65.8 °F 90% 30.02 in 10.0 mi ESE 3.5 mph - N/A   Overcast
6:40 AM 69.8 °F - 66.6 °F 89% 30.02 in 10.0 mi ENE 3.5 mph - N/A   Overcast
7:00 AM 69.8 °F - 66.7 °F 90% 30.03 in 10.0 mi Calm Calm - N/A   Overcast
7:20 AM 69.8 °F - 66.7 °F 90% 30.03 in 7.0 mi Calm Calm - N/A   Overcast
7:40 AM 69.8 °F - 66.7 °F 90% 30.04 in 5.0 mi Calm Calm - N/A   Overcast
8:00 AM 69.8 °F - 66.7 °F 90% 30.04 in 7.0 mi Calm Calm - N/A   Overcast
8:20 AM 70.3 °F - 67.3 °F 90% 30.04 in 10.0 mi Calm Calm - N/A   Overcast
8:40 AM 71.1 °F - 68.0 °F 90% 30.04 in 10.0 mi Calm Calm - N/A   Overcast
9:00 AM 71.1 °F - 68.0 °F 90% 30.04 in 10.0 mi Calm Calm - N/A   Overcast
9:20 AM 71.8 °F - 68.7 °F 90% 30.04 in 10.0 mi South 3.5 mph - N/A   Overcast
9:40 AM 72.5 °F - 69.1 °F 89% 30.04 in 10.0 mi Calm Calm - N/A   Overcast
10:00 AM 72.5 °F - 69.3 °F 90% 30.03 in 10.0 mi SSE 3.5 mph - N/A   Overcast
10:20 AM 72.7 °F - 69.6 °F 90% 30.03 in 10.0 mi SSE 5.8 mph - N/A   Overcast
10:40 AM 72.5 °F - 69.3 °F 90% 30.03 in 10.0 mi Calm Calm - N/A   Overcast
11:00 AM 73.4 °F - 70.0 °F 89% 30.04 in 10.0 mi SSE 3.5 mph - N/A   Overcast
11:20 AM 73.2 °F - 70.0 °F 90% 30.04 in 7.0 mi Calm Calm - N/A Rain Light Rain
11:40 AM 73.2 °F - 70.2 °F 90% 30.04 in 4.0 mi SSW 3.5 mph - N/A Rain Rain
12:00 PM 74.7 °F - 71.4 °F 90% 30.03 in 10.0 mi Calm Calm - N/A   Mostly Cloudy
12:40 PM 76.1 °F - 71.1 °F 84% 30.02 in 10.0 mi SW 3.5 mph - N/A   Mostly Cloudy
1:00 PM 76.5 °F - 70.9 °F 83% 30.02 in 10.0 mi WSW 5.8 mph - N/A   Mostly Cloudy
1:20 PM 77.2 °F - 71.6 °F 83% 30.01 in 10.0 mi SSW 4.6 mph - N/A   Mostly Cloudy
1:40 PM 76.3 °F - 72.5 °F 88% 30.00 in 10.0 mi NW 4.6 mph - N/A   Mostly Cloudy
2:00 PM 77.4 °F - 71.8 °F 83% 29.99 in 10.0 mi Calm Calm - N/A   Scattered Clouds
2:20 PM 77.9 °F - 72.3 °F 83% 29.98 in 7.0 mi NW 3.5 mph - N/A   Mostly Cloudy
2:40 PM 76.6 °F - 72.5 °F 87% 29.97 in 4.0 mi SE 3.5 mph - N/A Rain Rain
3:00 PM 79.0 °F - 73.9 °F 84% 29.97 in 10.0 mi Calm Calm - N/A   Scattered Clouds
3:20 PM 78.3 °F - 73.4 °F 85% 29.96 in 7.0 mi Calm Calm - N/A   Scattered Clouds
3:40 PM 80.1 °F 84.2 °F 73.0 °F 79% 29.95 in 10.0 mi Calm Calm - N/A   Scattered Clouds
4:00 PM 81.7 °F 86.9 °F 73.2 °F 75% 29.94 in 10.0 mi SSE 6.9 mph - N/A   Scattered Clouds
4:20 PM 82.4 °F 87.9 °F 73.0 °F 73% 29.94 in 10.0 mi South 3.5 mph - N/A   Scattered Clouds
4:40 PM 80.1 °F 84.1 °F 72.5 °F 78% 29.94 in 10.0 mi SSW 4.6 mph - N/A Rain Rain
5:00 PM 80.8 °F 85.6 °F 73.4 °F 78% 29.94 in 10.0 mi Calm Calm - N/A   Scattered Clouds
5:20 PM 79.9 °F - 73.0 °F 80% 29.94 in 10.0 mi SSW 4.6 mph - N/A   Mostly Cloudy
5:40 PM 80.6 °F 85.4 °F 73.6 °F 79% 29.94 in 10.0 mi SW 4.6 mph - N/A   Scattered Clouds
6:00 PM 80.1 °F 84.4 °F 73.4 °F 80% 29.93 in 10.0 mi Calm Calm - N/A   Scattered Clouds
6:20 PM 77.5 °F - 71.6 °F 82% 29.93 in 10.0 mi Calm Calm - N/A   Mostly Cloudy
6:40 PM 77.5 °F - 72.1 °F 83% 29.94 in 10.0 mi West 3.5 mph - N/A Rain Light Rain
7:00 PM 76.3 °F - 72.0 °F 86% 29.94 in 10.0 mi West 3.5 mph - N/A Rain Rain
7:20 PM 75.6 °F - 72.5 °F 90% 29.95 in 10.0 mi Calm Calm - N/A   Light Drizzle
7:40 PM 75.7 °F - 72.5 °F 90% 29.95 in 10.0 mi Calm Calm - N/A   Scattered Clouds
8:00 PM 75.2 °F - 71.8 °F 89% 29.96 in 10.0 mi WNW 3.5 mph - N/A Rain Light Rain
8:20 PM 73.9 °F - 70.9 °F 90% 29.97 in 10.0 mi NW 5.8 mph - N/A   Drizzle
8:40 PM 73.0 °F - 70.0 °F 90% 29.97 in 10.0 mi NNW 3.5 mph - N/A   Scattered Clouds
9:00 PM 72.5 °F - 69.3 °F 90% 29.97 in 10.0 mi Calm Calm - N/A   Clear
9:20 PM 72.7 °F - 68.4 °F 86% 29.97 in 10.0 mi NNW 3.5 mph - N/A   Clear
9:40 PM 72.5 °F - 67.5 °F 84% 29.99 in 10.0 mi NW 3.5 mph - N/A   Clear
10:00 PM 72.5 °F - 67.3 °F 84% 29.99 in 10.0 mi NW 3.5 mph - N/A   Scattered Clouds
10:20 PM 72.5 °F - 67.1 °F 83% 29.99 in 10.0 mi NNW 3.5 mph - N/A   Scattered Clouds
10:40 PM 72.5 °F - 66.6 °F 82% 29.99 in 10.0 mi Calm Calm - N/A   Scattered Clouds
11:00 PM 72.5 °F - 66.9 °F 83% 29.99 in 10.0 mi Calm Calm - N/A   Mostly Cloudy
11:20 PM 73.0 °F - 66.0 °F 79% 30.00 in 10.0 mi NNW 6.9 mph - N/A   Mostly Cloudy
11:40 PM 72.7 °F - 66.0 °F 80% 30.00 in 10.0 mi North 3.5 mph - N/A   Scattered Clouds